Year,Month,Day,Hour,Minute,Value (Times are PST for temperature in C)
2008,05,18,00,00,19.00
2008,05,18,00,01,19.00
2008,05,18,00,02,18.90
2008,05,18,00,03,18.90
2008,05,18,00,04,18.90
2008,05,18,00,05,18.80
2008,05,18,00,06,18.80
2008,05,18,00,07,18.80
2008,05,18,00,08,18.70
2008,05,18,00,09,18.70
2008,05,18,00,10,18.70
2008,05,18,00,11,18.70
2008,05,18,00,12,18.70
2008,05,18,00,13,18.70
2008,05,18,00,14,18.70
2008,05,18,00,15,18.70
2008,05,18,00,16,18.70
2008,05,18,00,17,18.80
2008,05,18,00,18,18.80
2008,05,18,00,19,18.80
2008,05,18,00,20,18.80
2008,05,18,00,21,18.80
2008,05,18,00,22,18.80
2008,05,18,00,23,18.80
2008,05,18,00,24,18.70
2008,05,18,00,25,18.70
2008,05,18,00,26,18.70
2008,05,18,00,27,18.70
2008,05,18,00,28,18.60
2008,05,18,00,29,18.60
2008,05,18,00,30,18.60
2008,05,18,00,31,18.50
2008,05,18,00,32,18.50
2008,05,18,00,33,18.50
2008,05,18,00,34,18.40
2008,05,18,00,35,18.40
2008,05,18,00,36,18.40
2008,05,18,00,37,18.30
2008,05,18,00,38,18.30
2008,05,18,00,39,18.30
2008,05,18,00,40,18.30
2008,05,18,00,41,18.20
2008,05,18,00,42,18.20
2008,05,18,00,43,18.20
2008,05,18,00,44,18.20
2008,05,18,00,45,18.20
2008,05,18,00,46,18.20
2008,05,18,00,47,18.20
2008,05,18,00,48,18.30
2008,05,18,00,49,18.30
2008,05,18,00,50,18.40
2008,05,18,00,51,18.40
2008,05,18,00,52,18.40
2008,05,18,00,53,18.50
2008,05,18,00,54,18.50
2008,05,18,00,55,18.60
2008,05,18,00,56,18.60
2008,05,18,00,57,18.60
2008,05,18,00,58,18.50
2008,05,18,00,59,18.50
2008,05,18,01,00,18.50
2008,05,18,01,01,18.40
2008,05,18,01,02,18.40
2008,05,18,01,03,18.40
2008,05,18,01,04,18.30
2008,05,18,01,05,18.30
2008,05,18,01,06,18.30
2008,05,18,01,07,18.30
2008,05,18,01,08,18.30
2008,05,18,01,09,18.20
2008,05,18,01,10,18.20
2008,05,18,01,11,18.20
2008,05,18,01,12,18.20
2008,05,18,01,13,18.10
2008,05,18,01,14,18.10
2008,05,18,01,15,18.10
2008,05,18,01,16,18.10
2008,05,18,01,17,18.00
2008,05,18,01,18,18.00
2008,05,18,01,19,17.90
2008,05,18,01,20,17.80
2008,05,18,01,21,17.70
2008,05,18,01,22,17.70
2008,05,18,01,23,17.60
2008,05,18,01,24,17.60
2008,05,18,01,25,17.70
2008,05,18,01,26,17.70
2008,05,18,01,27,17.70
2008,05,18,01,28,17.70
2008,05,18,01,29,17.70
2008,05,18,01,30,17.70
2008,05,18,01,31,17.60
2008,05,18,01,32,17.60
2008,05,18,01,33,17.50
2008,05,18,01,34,17.50
2008,05,18,01,35,17.40
2008,05,18,01,36,17.40
2008,05,18,01,37,17.40
2008,05,18,01,38,17.40
2008,05,18,01,39,17.40
2008,05,18,01,40,17.30
2008,05,18,01,41,17.30
2008,05,18,01,42,17.30
2008,05,18,01,43,17.30
2008,05,18,01,44,17.30
2008,05,18,01,45,17.30
2008,05,18,01,46,17.30
2008,05,18,01,47,17.30
2008,05,18,01,48,17.20
2008,05,18,01,49,17.20
2008,05,18,01,50,17.20
2008,05,18,01,51,17.20
2008,05,18,01,52,17.10
2008,05,18,01,53,17.10
2008,05,18,01,54,17.10
2008,05,18,01,55,17.10
2008,05,18,01,56,17.10
2008,05,18,01,57,17.20
2008,05,18,01,58,17.20
2008,05,18,01,59,17.30
2008,05,18,02,00,17.30
2008,05,18,02,01,17.30
2008,05,18,02,02,17.40
2008,05,18,02,03,17.40
2008,05,18,02,04,17.40
2008,05,18,02,05,17.40
2008,05,18,02,06,17.40
2008,05,18,02,07,17.40
2008,05,18,02,08,17.40
2008,05,18,02,09,17.40
2008,05,18,02,10,17.30
2008,05,18,02,11,17.40
2008,05,18,02,12,17.40
2008,05,18,02,13,17.30
2008,05,18,02,14,17.30
2008,05,18,02,15,17.30
2008,05,18,02,16,17.30
2008,05,18,02,17,17.30
2008,05,18,02,18,17.30
2008,05,18,02,19,17.30
2008,05,18,02,20,17.30
2008,05,18,02,21,17.30
2008,05,18,02,22,17.30
2008,05,18,02,23,17.30
2008,05,18,02,24,17.30
2008,05,18,02,25,17.30
2008,05,18,02,26,17.30
2008,05,18,02,27,17.30
2008,05,18,02,28,17.30
2008,05,18,02,29,17.30
2008,05,18,02,30,17.20
2008,05,18,02,31,17.20
2008,05,18,02,32,17.20
2008,05,18,02,33,17.10
2008,05,18,02,34,17.10
2008,05,18,02,35,17.00
2008,05,18,02,36,17.00
2008,05,18,02,37,16.90
2008,05,18,02,38,16.90
2008,05,18,02,39,16.90
2008,05,18,02,40,16.90
2008,05,18,02,41,16.80
2008,05,18,02,42,16.80
2008,05,18,02,43,16.80
2008,05,18,02,44,16.80
2008,05,18,02,45,16.90
2008,05,18,02,46,16.90
2008,05,18,02,47,16.90
2008,05,18,02,48,16.90
2008,05,18,02,49,16.90
2008,05,18,02,50,16.90
2008,05,18,02,51,16.90
2008,05,18,02,52,16.80
2008,05,18,02,53,16.80
2008,05,18,02,54,16.80
2008,05,18,02,55,16.80
2008,05,18,02,56,16.80
2008,05,18,02,57,16.80
2008,05,18,02,58,16.80
2008,05,18,02,59,16.80
2008,05,18,03,00,16.80
2008,05,18,03,01,16.70
2008,05,18,03,02,16.70
2008,05,18,03,03,16.70
2008,05,18,03,04,16.70
2008,05,18,03,05,16.60
2008,05,18,03,06,16.60
2008,05,18,03,07,16.60
2008,05,18,03,08,16.60
2008,05,18,03,09,16.60
2008,05,18,03,10,16.60
2008,05,18,03,11,16.60
2008,05,18,03,12,16.60
2008,05,18,03,13,16.60
2008,05,18,03,14,16.60
2008,05,18,03,15,16.60
2008,05,18,03,16,16.50
2008,05,18,03,17,16.60
2008,05,18,03,18,16.50
2008,05,18,03,19,16.50
2008,05,18,03,20,16.50
2008,05,18,03,21,16.50
2008,05,18,03,22,16.50
2008,05,18,03,23,16.40
2008,05,18,03,24,16.40
2008,05,18,03,25,16.40
2008,05,18,03,26,16.30
2008,05,18,03,27,16.30
2008,05,18,03,28,16.30
2008,05,18,03,29,16.30
2008,05,18,03,30,16.30
2008,05,18,03,31,16.30
2008,05,18,03,32,16.30
2008,05,18,03,33,16.30
2008,05,18,03,34,16.30
2008,05,18,03,35,16.30
2008,05,18,03,36,16.30
2008,05,18,03,37,16.30
2008,05,18,03,38,16.40
2008,05,18,03,39,16.40
2008,05,18,03,40,16.40
2008,05,18,03,41,16.40
2008,05,18,03,42,16.40
2008,05,18,03,43,16.40
2008,05,18,03,44,16.40
2008,05,18,03,45,16.40
2008,05,18,03,46,16.40
2008,05,18,03,47,16.40
2008,05,18,03,48,16.30
2008,05,18,03,49,16.30
2008,05,18,03,50,16.30
2008,05,18,03,51,16.30
2008,05,18,03,52,16.30
2008,05,18,03,53,16.30
2008,05,18,03,54,16.30
2008,05,18,03,55,16.20
2008,05,18,03,56,16.20
2008,05,18,03,57,16.20
2008,05,18,03,58,16.20
2008,05,18,03,59,16.20
2008,05,18,04,00,16.30
2008,05,18,04,01,16.30
2008,05,18,04,02,16.30
2008,05,18,04,03,16.30
2008,05,18,04,04,16.30
2008,05,18,04,05,16.20
2008,05,18,04,06,16.20
2008,05,18,04,07,16.30
2008,05,18,04,08,16.30
2008,05,18,04,09,16.30
2008,05,18,04,10,16.30
2008,05,18,04,11,16.30
2008,05,18,04,12,16.30
2008,05,18,04,13,16.30
2008,05,18,04,14,16.30
2008,05,18,04,15,16.30
2008,05,18,04,16,16.30
2008,05,18,04,17,16.30
2008,05,18,04,18,16.30
2008,05,18,04,19,16.30
2008,05,18,04,20,16.30
2008,05,18,04,21,16.30
2008,05,18,04,22,16.30
2008,05,18,04,23,16.20
2008,05,18,04,24,16.20
2008,05,18,04,25,16.20
2008,05,18,04,26,16.20
2008,05,18,04,27,16.10
2008,05,18,04,28,16.10
2008,05,18,04,29,16.10
2008,05,18,04,30,16.10
2008,05,18,04,31,16.10
2008,05,18,04,32,16.00
2008,05,18,04,33,16.00
2008,05,18,04,34,16.00
2008,05,18,04,35,15.90
2008,05,18,04,36,15.80
2008,05,18,04,37,15.70
2008,05,18,04,38,15.70
2008,05,18,04,39,15.60
2008,05,18,04,40,15.60
2008,05,18,04,41,15.50
2008,05,18,04,42,15.40
2008,05,18,04,43,15.40
2008,05,18,04,44,15.40
2008,05,18,04,45,15.30
2008,05,18,04,46,15.30
2008,05,18,04,47,15.30
2008,05,18,04,48,15.20
2008,05,18,04,49,15.20
2008,05,18,04,50,15.10
2008,05,18,04,51,15.00
2008,05,18,04,52,15.00
2008,05,18,04,53,15.00
2008,05,18,04,54,15.00
2008,05,18,04,55,15.00
2008,05,18,04,56,15.00
2008,05,18,04,57,15.00
2008,05,18,04,58,15.00
2008,05,18,04,59,15.00
2008,05,18,05,00,15.00
2008,05,18,05,01,15.00
2008,05,18,05,02,15.00
2008,05,18,05,03,15.00
2008,05,18,05,04,15.00
2008,05,18,05,05,15.00
2008,05,18,05,06,14.90
2008,05,18,05,07,14.90
2008,05,18,05,08,14.90
2008,05,18,05,09,14.80
2008,05,18,05,10,14.80
2008,05,18,05,11,14.80
2008,05,18,05,12,14.70
2008,05,18,05,13,14.70
2008,05,18,05,14,14.60
2008,05,18,05,15,14.60
2008,05,18,05,16,14.60
2008,05,18,05,17,14.60
2008,05,18,05,18,14.50
2008,05,18,05,19,14.50
2008,05,18,05,20,14.50
2008,05,18,05,21,14.50
2008,05,18,05,22,14.40
2008,05,18,05,23,14.50
2008,05,18,05,24,14.50
2008,05,18,05,25,14.50
2008,05,18,05,26,14.50
2008,05,18,05,27,14.50
2008,05,18,05,28,14.40
2008,05,18,05,29,14.40
2008,05,18,05,30,14.40
2008,05,18,05,31,14.40
2008,05,18,05,32,14.40
2008,05,18,05,33,14.40
2008,05,18,05,34,14.40
2008,05,18,05,35,14.30
2008,05,18,05,36,14.30
2008,05,18,05,37,14.30
2008,05,18,05,38,14.30
2008,05,18,05,39,14.30
2008,05,18,05,40,14.30
2008,05,18,05,41,14.30
2008,05,18,05,42,14.30
2008,05,18,05,43,14.40
2008,05,18,05,44,14.40
2008,05,18,05,45,14.40
2008,05,18,05,46,14.40
2008,05,18,05,47,14.40
2008,05,18,05,48,14.40
2008,05,18,05,49,14.40
2008,05,18,05,50,14.40
2008,05,18,05,51,14.40
2008,05,18,05,52,14.40
2008,05,18,05,53,14.40
2008,05,18,05,54,14.50
2008,05,18,05,55,14.40
2008,05,18,05,56,14.40
2008,05,18,05,57,14.50
2008,05,18,05,58,14.40
2008,05,18,05,59,14.40
2008,05,18,06,00,14.40
2008,05,18,06,01,14.40
2008,05,18,06,02,14.30
2008,05,18,06,03,14.30
2008,05,18,06,04,14.30
2008,05,18,06,05,14.30
2008,05,18,06,06,14.30
2008,05,18,06,07,14.30
2008,05,18,06,08,14.30
2008,05,18,06,09,14.30
2008,05,18,06,10,14.20
2008,05,18,06,11,14.20
2008,05,18,06,12,14.20
2008,05,18,06,13,14.20
2008,05,18,06,14,14.20
2008,05,18,06,15,14.20
2008,05,18,06,16,14.20
2008,05,18,06,17,14.20
2008,05,18,06,18,14.20
2008,05,18,06,19,14.20
2008,05,18,06,20,14.30
2008,05,18,06,21,14.30
2008,05,18,06,22,14.30
2008,05,18,06,23,14.30
2008,05,18,06,24,14.30
2008,05,18,06,25,14.20
2008,05,18,06,26,14.20
2008,05,18,06,27,14.20
2008,05,18,06,28,14.20
2008,05,18,06,29,14.20
2008,05,18,06,30,14.30
2008,05,18,06,31,14.30
2008,05,18,06,32,14.30
2008,05,18,06,33,14.30
2008,05,18,06,34,14.30
2008,05,18,06,35,14.40
2008,05,18,06,36,14.40
2008,05,18,06,37,14.50
2008,05,18,06,38,14.60
2008,05,18,06,39,14.60
2008,05,18,06,40,14.60
2008,05,18,06,41,14.60
2008,05,18,06,42,14.70
2008,05,18,06,43,14.70
2008,05,18,06,44,14.70
2008,05,18,06,45,14.70
2008,05,18,06,46,14.60
2008,05,18,06,47,14.60
2008,05,18,06,48,14.60
2008,05,18,06,49,14.50
2008,05,18,06,50,14.50
2008,05,18,06,51,14.40
2008,05,18,06,52,14.40
2008,05,18,06,53,14.40
2008,05,18,06,54,14.40
2008,05,18,06,55,14.40
2008,05,18,06,56,14.40
2008,05,18,06,57,14.40
2008,05,18,06,58,14.40
2008,05,18,06,59,14.40
2008,05,18,07,00,14.50
2008,05,18,07,01,14.50
2008,05,18,07,02,14.50
2008,05,18,07,03,14.60
2008,05,18,07,04,14.60
2008,05,18,07,05,14.70
2008,05,18,07,06,14.70
2008,05,18,07,07,14.80
2008,05,18,07,08,14.80
2008,05,18,07,09,14.80
2008,05,18,07,10,14.80
2008,05,18,07,11,14.90
2008,05,18,07,12,15.00
2008,05,18,07,13,15.00
2008,05,18,07,14,15.00
2008,05,18,07,15,15.00
2008,05,18,07,16,15.00
2008,05,18,07,17,15.00
2008,05,18,07,18,15.10
2008,05,18,07,19,15.20
2008,05,18,07,20,15.20
2008,05,18,07,21,15.30
2008,05,18,07,22,15.40
2008,05,18,07,23,15.40
2008,05,18,07,24,15.50
2008,05,18,07,25,15.60
2008,05,18,07,26,15.60
2008,05,18,07,27,15.70
2008,05,18,07,28,15.70
2008,05,18,07,29,15.80
2008,05,18,07,30,15.80
2008,05,18,07,31,15.80
2008,05,18,07,32,15.90
2008,05,18,07,33,15.90
2008,05,18,07,34,15.90
2008,05,18,07,35,15.90
2008,05,18,07,36,16.00
2008,05,18,07,37,16.00
2008,05,18,07,38,16.10
2008,05,18,07,39,16.10
2008,05,18,07,40,16.20
2008,05,18,07,41,16.20
2008,05,18,07,42,16.20
2008,05,18,07,43,16.30
2008,05,18,07,44,16.30
2008,05,18,07,45,16.40
2008,05,18,07,46,16.50
2008,05,18,07,47,16.50
2008,05,18,07,48,16.60
2008,05,18,07,49,16.70
2008,05,18,07,50,16.80
2008,05,18,07,51,16.80
2008,05,18,07,52,16.90
2008,05,18,07,53,17.00
2008,05,18,07,54,17.10
2008,05,18,07,55,17.20
2008,05,18,07,56,17.40
2008,05,18,07,57,17.50
2008,05,18,07,58,17.60
2008,05,18,07,59,17.70
2008,05,18,08,00,17.70
2008,05,18,08,01,17.80
2008,05,18,08,02,17.80
2008,05,18,08,03,17.80
2008,05,18,08,04,17.80
2008,05,18,08,05,17.80
2008,05,18,08,06,17.80
2008,05,18,08,07,17.80
2008,05,18,08,08,17.80
2008,05,18,08,09,17.80
2008,05,18,08,10,17.80
2008,05,18,08,11,17.80
2008,05,18,08,12,17.90
2008,05,18,08,13,17.90
2008,05,18,08,14,17.90
2008,05,18,08,15,18.00
2008,05,18,08,16,18.10
2008,05,18,08,17,18.10
2008,05,18,08,18,18.20
2008,05,18,08,19,18.20
2008,05,18,08,20,18.20
2008,05,18,08,21,18.30
2008,05,18,08,22,18.30
2008,05,18,08,23,18.40
2008,05,18,08,24,18.40
2008,05,18,08,25,18.50
2008,05,18,08,26,18.60
2008,05,18,08,27,18.60
2008,05,18,08,28,18.70
2008,05,18,08,29,18.70
2008,05,18,08,30,18.70
2008,05,18,08,31,18.70
2008,05,18,08,32,18.70
2008,05,18,08,33,18.70
2008,05,18,08,34,18.70
2008,05,18,08,35,18.60
2008,05,18,08,36,18.60
2008,05,18,08,37,18.60
2008,05,18,08,38,18.70
2008,05,18,08,39,18.80
2008,05,18,08,40,18.80
2008,05,18,08,41,18.80
2008,05,18,08,42,18.80
2008,05,18,08,43,18.80
2008,05,18,08,44,18.70
2008,05,18,08,45,18.70
2008,05,18,08,46,18.70
2008,05,18,08,47,18.80
2008,05,18,08,48,18.80
2008,05,18,08,49,18.90
2008,05,18,08,50,18.90
2008,05,18,08,51,19.00
2008,05,18,08,52,19.10
2008,05,18,08,53,19.10
2008,05,18,08,54,19.20
2008,05,18,08,55,19.30
2008,05,18,08,56,19.40
2008,05,18,08,57,19.40
2008,05,18,08,58,19.50
2008,05,18,08,59,19.50
2008,05,18,09,00,19.50
2008,05,18,09,01,19.40
2008,05,18,09,02,19.40
2008,05,18,09,03,19.40
2008,05,18,09,04,19.40
2008,05,18,09,05,19.40
2008,05,18,09,06,19.40
2008,05,18,09,07,19.50
2008,05,18,09,08,19.50
2008,05,18,09,09,19.50
2008,05,18,09,10,19.50
2008,05,18,09,11,19.60
2008,05,18,09,12,19.60
2008,05,18,09,13,19.60
2008,05,18,09,14,19.70
2008,05,18,09,15,19.70
2008,05,18,09,16,19.70
2008,05,18,09,17,19.70
2008,05,18,09,18,19.60
2008,05,18,09,19,19.60
2008,05,18,09,20,19.70
2008,05,18,09,21,19.70
2008,05,18,09,22,19.70
2008,05,18,09,23,19.60
2008,05,18,09,24,19.60
2008,05,18,09,25,19.60
2008,05,18,09,26,19.60
2008,05,18,09,27,19.60
2008,05,18,09,28,19.60
2008,05,18,09,29,19.70
2008,05,18,09,30,19.70
2008,05,18,09,31,19.70
2008,05,18,09,32,19.80
2008,05,18,09,33,19.90
2008,05,18,09,34,20.00
2008,05,18,09,35,20.10
2008,05,18,09,36,20.10
2008,05,18,09,37,20.10
2008,05,18,09,38,20.00
2008,05,18,09,39,20.00
2008,05,18,09,40,19.90
2008,05,18,09,41,19.90
2008,05,18,09,42,19.90
2008,05,18,09,43,19.80
2008,05,18,09,44,19.50
2008,05,18,09,45,19.20
2008,05,18,09,46,18.90
2008,05,18,09,47,18.80
2008,05,18,09,48,18.60
2008,05,18,09,49,18.50
2008,05,18,09,50,18.30
2008,05,18,09,51,18.10
2008,05,18,09,52,17.90
2008,05,18,09,53,17.70
2008,05,18,09,54,17.60
2008,05,18,09,55,17.50
2008,05,18,09,56,17.40
2008,05,18,09,57,17.30
2008,05,18,09,58,17.30
2008,05,18,09,59,17.30
2008,05,18,10,00,17.20
2008,05,18,10,01,17.20
2008,05,18,10,02,17.20
2008,05,18,10,03,17.30
2008,05,18,10,04,17.30
2008,05,18,10,05,17.40
2008,05,18,10,06,17.50
2008,05,18,10,07,17.60
2008,05,18,10,08,17.70
2008,05,18,10,09,17.70
2008,05,18,10,10,17.70
2008,05,18,10,11,17.80
2008,05,18,10,12,17.80
2008,05,18,10,13,17.90
2008,05,18,10,14,18.00
2008,05,18,10,15,18.20
2008,05,18,10,16,18.20
2008,05,18,10,17,18.20
2008,05,18,10,18,18.10
2008,05,18,10,19,18.20
2008,05,18,10,20,18.30
2008,05,18,10,21,18.30
2008,05,18,10,22,18.30
2008,05,18,10,23,18.30
2008,05,18,10,24,18.30
2008,05,18,10,25,18.30
2008,05,18,10,26,18.30
2008,05,18,10,27,18.40
2008,05,18,10,28,18.50
2008,05,18,10,29,18.60
2008,05,18,10,30,18.80
2008,05,18,10,31,18.80
2008,05,18,10,32,18.90
2008,05,18,10,33,18.90
2008,05,18,10,34,19.00
2008,05,18,10,35,19.20
2008,05,18,10,36,19.30
2008,05,18,10,37,19.50
2008,05,18,10,38,19.60
2008,05,18,10,39,19.50
2008,05,18,10,40,19.60
2008,05,18,10,41,19.60
2008,05,18,10,42,19.70
2008,05,18,10,43,19.80
2008,05,18,10,44,19.80
2008,05,18,10,45,19.80
2008,05,18,10,46,19.80
2008,05,18,10,47,19.80
2008,05,18,10,48,19.70
2008,05,18,10,49,19.50
2008,05,18,10,50,19.50
2008,05,18,10,51,19.60
2008,05,18,10,52,19.60
2008,05,18,10,53,19.70
2008,05,18,10,54,19.70
2008,05,18,10,55,19.90
2008,05,18,10,56,20.00
2008,05,18,10,57,20.10
2008,05,18,10,58,20.30
2008,05,18,10,59,20.40
2008,05,18,11,00,20.50
2008,05,18,11,01,20.60
2008,05,18,11,02,20.70
2008,05,18,11,03,20.80
2008,05,18,11,04,20.90
2008,05,18,11,05,20.90
2008,05,18,11,06,21.00
2008,05,18,11,07,21.10
2008,05,18,11,08,21.20
2008,05,18,11,09,21.20
2008,05,18,11,10,21.20
2008,05,18,11,11,21.10
2008,05,18,11,12,21.00
2008,05,18,11,13,20.80
2008,05,18,11,14,20.60
2008,05,18,11,15,20.50
2008,05,18,11,16,20.30
2008,05,18,11,17,20.20
2008,05,18,11,18,20.20
2008,05,18,11,19,20.20
2008,05,18,11,20,20.10
2008,05,18,11,21,20.00
2008,05,18,11,22,19.80
2008,05,18,11,23,19.70
2008,05,18,11,24,19.60
2008,05,18,11,25,19.60
2008,05,18,11,26,19.60
2008,05,18,11,27,19.50
2008,05,18,11,28,19.60
2008,05,18,11,29,19.60
2008,05,18,11,30,19.70
2008,05,18,11,31,19.70
2008,05,18,11,32,19.90
2008,05,18,11,33,20.00
2008,05,18,11,34,20.10
2008,05,18,11,35,19.90
2008,05,18,11,36,19.80
2008,05,18,11,37,19.80
2008,05,18,11,38,19.80
2008,05,18,11,39,19.80
2008,05,18,11,40,19.90
2008,05,18,11,41,20.00
2008,05,18,11,42,20.10
2008,05,18,11,43,20.30
2008,05,18,11,44,20.40
2008,05,18,11,45,20.50
2008,05,18,11,46,20.60
2008,05,18,11,47,20.60
2008,05,18,11,48,20.50
2008,05,18,11,49,20.30
2008,05,18,11,50,20.20
2008,05,18,11,51,20.20
2008,05,18,11,52,20.10
2008,05,18,11,53,20.10
2008,05,18,11,54,20.10
2008,05,18,11,55,20.10
2008,05,18,11,56,20.30
2008,05,18,11,57,20.40
2008,05,18,11,58,20.50
2008,05,18,11,59,20.60
2008,05,18,12,00,20.70
2008,05,18,12,01,20.80
2008,05,18,12,02,21.00
2008,05,18,12,03,21.20
2008,05,18,12,04,21.30
2008,05,18,12,05,21.40
2008,05,18,12,06,21.60
2008,05,18,12,07,21.70
2008,05,18,12,08,21.80
2008,05,18,12,09,21.90
2008,05,18,12,10,21.90
2008,05,18,12,11,22.00
2008,05,18,12,12,22.00
2008,05,18,12,13,22.00
2008,05,18,12,14,21.70
2008,05,18,12,15,21.30
2008,05,18,12,16,20.90
2008,05,18,12,17,20.80
2008,05,18,12,18,20.60
2008,05,18,12,19,20.60
2008,05,18,12,20,20.60
2008,05,18,12,21,20.70
2008,05,18,12,22,20.80
2008,05,18,12,23,20.90
2008,05,18,12,24,20.90
2008,05,18,12,25,21.00
2008,05,18,12,26,21.10
2008,05,18,12,27,21.10
2008,05,18,12,28,21.10
2008,05,18,12,29,21.20
2008,05,18,12,30,21.30
2008,05,18,12,31,21.30
2008,05,18,12,32,21.30
2008,05,18,12,33,21.20
2008,05,18,12,34,21.10
2008,05,18,12,35,20.90
2008,05,18,12,36,20.80
2008,05,18,12,37,20.80
2008,05,18,12,38,20.90
2008,05,18,12,39,21.00
2008,05,18,12,40,21.00
2008,05,18,12,41,21.10
2008,05,18,12,42,21.30
2008,05,18,12,43,21.20
2008,05,18,12,44,21.10
2008,05,18,12,45,20.90
2008,05,18,12,46,20.70
2008,05,18,12,47,20.70
2008,05,18,12,48,20.70
2008,05,18,12,49,20.80
2008,05,18,12,50,20.80
2008,05,18,12,51,20.80
2008,05,18,12,52,20.80
2008,05,18,12,53,20.70
2008,05,18,12,54,20.60
2008,05,18,12,55,20.50
2008,05,18,12,56,20.30
2008,05,18,12,57,20.10
2008,05,18,12,58,20.10
2008,05,18,12,59,20.20
2008,05,18,13,00,20.30
2008,05,18,13,01,20.50
2008,05,18,13,02,20.60
2008,05,18,13,03,20.60
2008,05,18,13,04,20.60
2008,05,18,13,05,20.70
2008,05,18,13,06,20.80
2008,05,18,13,07,20.90
2008,05,18,13,08,20.90
2008,05,18,13,09,20.90
2008,05,18,13,10,21.10
2008,05,18,13,11,21.20
2008,05,18,13,12,21.30
2008,05,18,13,13,21.30
2008,05,18,13,14,21.30
2008,05,18,13,15,21.30
2008,05,18,13,16,21.30
2008,05,18,13,17,21.20
2008,05,18,13,18,21.30
2008,05,18,13,19,21.20
2008,05,18,13,20,20.90
2008,05,18,13,21,20.70
2008,05,18,13,22,20.40
2008,05,18,13,23,20.00
2008,05,18,13,24,19.70
2008,05,18,13,25,19.60
2008,05,18,13,26,19.60
2008,05,18,13,27,19.50
2008,05,18,13,28,19.20
2008,05,18,13,29,19.00
2008,05,18,13,30,18.90
2008,05,18,13,31,18.70
2008,05,18,13,32,18.60
2008,05,18,13,33,18.40
2008,05,18,13,34,18.30
2008,05,18,13,35,18.20
2008,05,18,13,36,18.20
2008,05,18,13,37,18.20
2008,05,18,13,38,18.10
2008,05,18,13,39,18.10
2008,05,18,13,40,18.20
2008,05,18,13,41,18.10
2008,05,18,13,42,18.10
2008,05,18,13,43,18.00
2008,05,18,13,44,18.10
2008,05,18,13,45,18.20
2008,05,18,13,46,18.30
2008,05,18,13,47,18.40
2008,05,18,13,48,18.40
2008,05,18,13,49,18.50
2008,05,18,13,50,18.50
2008,05,18,13,51,18.50
2008,05,18,13,52,18.50
2008,05,18,13,53,18.50
2008,05,18,13,54,18.40
2008,05,18,13,55,18.30
2008,05,18,13,56,18.20
2008,05,18,13,57,18.20
2008,05,18,13,58,18.20
2008,05,18,13,59,18.20
2008,05,18,14,00,18.20
2008,05,18,14,01,18.40
2008,05,18,14,02,18.40
2008,05,18,14,03,18.40
2008,05,18,14,04,18.40
2008,05,18,14,05,18.40
2008,05,18,14,06,18.20
2008,05,18,14,07,18.00
2008,05,18,14,08,17.80
2008,05,18,14,09,17.70
2008,05,18,14,10,17.50
2008,05,18,14,11,17.30
2008,05,18,14,12,17.20
2008,05,18,14,13,17.00
2008,05,18,14,14,16.90
2008,05,18,14,15,17.00
2008,05,18,14,16,17.10
2008,05,18,14,17,17.20
2008,05,18,14,18,17.30
2008,05,18,14,19,17.50
2008,05,18,14,20,17.60
2008,05,18,14,21,17.80
2008,05,18,14,22,17.90
2008,05,18,14,23,18.00
2008,05,18,14,24,18.10
2008,05,18,14,25,18.20
2008,05,18,14,26,18.30
2008,05,18,14,27,18.40
2008,05,18,14,28,18.50
2008,05,18,14,29,18.70
2008,05,18,14,30,18.80
2008,05,18,14,31,18.90
2008,05,18,14,32,19.00
2008,05,18,14,33,18.90
2008,05,18,14,34,19.00
2008,05,18,14,35,18.90
2008,05,18,14,36,18.90
2008,05,18,14,37,18.80
2008,05,18,14,38,18.90
2008,05,18,14,39,18.80
2008,05,18,14,40,18.70
2008,05,18,14,41,18.60
2008,05,18,14,42,18.60
2008,05,18,14,43,18.50
2008,05,18,14,44,18.50
2008,05,18,14,45,18.60
2008,05,18,14,46,18.80
2008,05,18,14,47,19.00
2008,05,18,14,48,19.10
2008,05,18,14,49,19.20
2008,05,18,14,50,19.20
2008,05,18,14,51,19.20
2008,05,18,14,52,19.20
2008,05,18,14,53,19.20
2008,05,18,14,54,19.10
2008,05,18,14,55,19.10
2008,05,18,14,56,19.20
2008,05,18,14,57,19.30
2008,05,18,14,58,19.20
2008,05,18,14,59,19.10
2008,05,18,15,00,19.10
2008,05,18,15,01,19.10
2008,05,18,15,02,19.00
2008,05,18,15,03,19.00
2008,05,18,15,04,18.90
2008,05,18,15,05,18.90
2008,05,18,15,06,18.90
2008,05,18,15,07,19.00
2008,05,18,15,08,19.10
2008,05,18,15,09,19.30
2008,05,18,15,10,19.50
2008,05,18,15,11,19.60
2008,05,18,15,12,19.80
2008,05,18,15,13,20.00
2008,05,18,15,14,20.20
2008,05,18,15,15,20.30
2008,05,18,15,16,20.30
2008,05,18,15,17,20.20
2008,05,18,15,18,20.20
2008,05,18,15,19,20.10
2008,05,18,15,20,20.10
2008,05,18,15,21,20.10
2008,05,18,15,22,20.00
2008,05,18,15,23,19.90
2008,05,18,15,24,19.90
2008,05,18,15,25,19.90
2008,05,18,15,26,19.90
2008,05,18,15,27,19.80
2008,05,18,15,28,19.70
2008,05,18,15,29,19.70
2008,05,18,15,30,19.60
2008,05,18,15,31,19.60
2008,05,18,15,32,19.60
2008,05,18,15,33,19.70
2008,05,18,15,34,19.70
2008,05,18,15,35,19.70
2008,05,18,15,36,19.70
2008,05,18,15,37,19.70
2008,05,18,15,38,19.70
2008,05,18,15,39,19.80
2008,05,18,15,40,19.80
2008,05,18,15,41,19.80
2008,05,18,15,42,19.80
2008,05,18,15,43,19.80
2008,05,18,15,44,19.70
2008,05,18,15,45,19.70
2008,05,18,15,46,19.80
2008,05,18,15,47,19.70
2008,05,18,15,48,19.60
2008,05,18,15,49,19.40
2008,05,18,15,50,19.30
2008,05,18,15,51,19.20
2008,05,18,15,52,19.20
2008,05,18,15,53,19.10
2008,05,18,15,54,19.10
2008,05,18,15,55,19.00
2008,05,18,15,56,18.90
2008,05,18,15,57,18.90
2008,05,18,15,58,18.90
2008,05,18,15,59,18.90
2008,05,18,16,00,19.00
2008,05,18,16,01,19.10
2008,05,18,16,02,19.10
2008,05,18,16,03,19.20
2008,05,18,16,04,19.20
2008,05,18,16,05,19.20
2008,05,18,16,06,19.20
2008,05,18,16,07,19.30
2008,05,18,16,08,19.30
2008,05,18,16,09,19.40
2008,05,18,16,10,19.50
2008,05,18,16,11,19.50
2008,05,18,16,12,19.60
2008,05,18,16,13,19.60
2008,05,18,16,14,19.60
2008,05,18,16,15,19.60
2008,05,18,16,16,19.60
2008,05,18,16,17,19.60
2008,05,18,16,18,19.60
2008,05,18,16,19,19.60
2008,05,18,16,20,19.50
2008,05,18,16,21,19.50
2008,05,18,16,22,19.40
2008,05,18,16,23,19.40
2008,05,18,16,24,19.30
2008,05,18,16,25,19.30
2008,05,18,16,26,19.20
2008,05,18,16,27,19.10
2008,05,18,16,28,19.10
2008,05,18,16,29,18.90
2008,05,18,16,30,18.80
2008,05,18,16,31,18.80
2008,05,18,16,32,18.80
2008,05,18,16,33,18.80
2008,05,18,16,34,18.70
2008,05,18,16,35,18.70
2008,05,18,16,36,18.70
2008,05,18,16,37,18.70
2008,05,18,16,38,18.60
2008,05,18,16,39,18.50
2008,05,18,16,40,18.50
2008,05,18,16,41,18.40
2008,05,18,16,42,18.30
2008,05,18,16,43,18.30
2008,05,18,16,44,18.20
2008,05,18,16,45,18.10
2008,05,18,16,46,18.00
2008,05,18,16,47,17.90
2008,05,18,16,48,18.00
2008,05,18,16,49,18.00
2008,05,18,16,50,18.10
2008,05,18,16,51,18.20
2008,05,18,16,52,18.30
2008,05,18,16,53,18.40
2008,05,18,16,54,18.50
2008,05,18,16,55,18.60
2008,05,18,16,56,18.80
2008,05,18,16,57,18.90
2008,05,18,16,58,19.00
2008,05,18,16,59,19.10
2008,05,18,17,00,19.10
2008,05,18,17,01,19.20
2008,05,18,17,02,19.30
2008,05,18,17,03,19.40
2008,05,18,17,04,19.40
2008,05,18,17,05,19.40
2008,05,18,17,06,19.50
2008,05,18,17,07,19.60
2008,05,18,17,08,19.60
2008,05,18,17,09,19.60
2008,05,18,17,10,19.60
2008,05,18,17,11,19.50
2008,05,18,17,12,19.40
2008,05,18,17,13,19.40
2008,05,18,17,14,19.40
2008,05,18,17,15,19.40
2008,05,18,17,16,19.30
2008,05,18,17,17,19.30
2008,05,18,17,18,19.40
2008,05,18,17,19,19.50